Minchumina, AK

8:43 AM AKDT on April 29, 2017 (GMT -0800)
Minchumina

Weather History for PAMH - June, 2013

Change the Weather History Date:

Monday, June 17, 2013

  Actual Average Record
Temperature  
Mean Temperature 76 °F -  
Max Temperature 84 °F 65 °F 84 °F (2013)
Min Temperature 69 °F 48 °F 44 °F (1997)
Cooling Degree Days 12    
Growing Degree Days 26 (Base 50)    
Moisture  
Dew Point 49 °F    
Average Humidity 38    
Maximum Humidity 53    
Minimum Humidity 22    
Precipitation  
Precipitation 0.00 in - - ()
Sea Level Pressure  
Sea Level Pressure 30.10 in    
Wind  
Wind Speed 1 mph (NE)    
Max Wind Speed 6 mph    
Max Gust Speed -    
Visibility 10 miles    
Events      
Averages and records for this station are not official NWS values.
T = Trace of Precipitation, MM = Missing Value Source: NWS Daily Summary

Daily Weather History Graph

Daily Weather History Graph

Search for Another Location

Airport or City:

Trip Planner

Search our weather history database for the weather conditions in past years. The results will help you decide how hot, cold, wet, or windy it might be!

Date:

Astronomy

Jun. 17, 2013 Rise Set
Actual Time 3:43 AM AKDT 12:37 AM AKDT
Civil Twilight Sun does not set Sun does not set
Nautical Twilight Sun does not set Sun does not set
Astronomical Twilight Sun does not set Sun does not set
Moon 4:10 PM AKDT (6/17) 1:55 AM AKDT (6/17)
Length of Visible Light 24h 00m
Length of Day
20h 53m
First Quarter, 62% of the Moon is Illuminated
Jun 17
First Quarter
Jun 23
Full
Jun 29
Last Quarter
Jul 7
New
Jul 15
First Quarter

Hourly Weather History & Observations

Time (AKDT) Temp. Heat Index Dew Point Humidity Pressure Visibility Wind Dir Wind Speed Gust Speed Precip Events Conditions
12:16 AM 73.4 °F - 53.6 °F 50% 30.15 in 10.0 mi Calm Calm - N/A   Clear
12:36 AM 73.4 °F - 51.8 °F 47% 30.15 in 10.0 mi Calm Calm - N/A   Clear
12:56 AM 73.4 °F - 51.8 °F 47% 30.15 in 10.0 mi Calm Calm - N/A   Clear
1:16 AM 73.4 °F - 51.8 °F 47% 30.15 in 10.0 mi Calm Calm - N/A   Clear
1:36 AM 73.4 °F - 51.8 °F 47% 30.15 in 10.0 mi Calm Calm - N/A   Clear
1:56 AM 71.6 °F - 51.8 °F 50% 30.15 in 10.0 mi Calm Calm - N/A   Clear
2:16 AM 71.6 °F - 51.8 °F 50% 30.15 in 10.0 mi Calm Calm - N/A   Clear
2:36 AM 71.6 °F - 51.8 °F 50% 30.15 in 10.0 mi Calm Calm - N/A   Clear
2:56 AM 71.6 °F - 51.8 °F 50% 30.15 in 10.0 mi Calm Calm - N/A   Clear
3:16 AM 71.6 °F - 51.8 °F 50% 30.15 in 10.0 mi Calm Calm - N/A   Clear
3:36 AM 71.6 °F - 51.8 °F 50% 30.15 in 10.0 mi Calm Calm - N/A   Clear
3:56 AM 71.6 °F - 51.8 °F 50% 30.15 in 10.0 mi Calm Calm - N/A   Clear
4:16 AM 69.8 °F - 51.8 °F 53% 30.15 in 10.0 mi Calm Calm - N/A   Clear
4:36 AM 69.8 °F - 51.8 °F 53% 30.15 in 10.0 mi Calm Calm - N/A   Clear
4:56 AM 71.6 °F - 51.8 °F 50% 30.15 in 10.0 mi Calm Calm - N/A   Clear
5:16 AM 71.6 °F - 51.8 °F 50% 30.15 in 10.0 mi Calm Calm - N/A   Clear
5:36 AM 69.8 °F - 51.8 °F 53% 30.15 in 10.0 mi Calm Calm - N/A   Clear
5:56 AM 69.8 °F - 51.8 °F 53% 30.14 in 10.0 mi Calm Calm - N/A   Clear
6:16 AM 69.8 °F - 51.8 °F 53% 30.14 in 10.0 mi Calm Calm - N/A   Clear
6:36 AM 71.6 °F - 51.8 °F 50% 30.14 in 10.0 mi Calm Calm - N/A   Clear
6:56 AM 71.6 °F - 53.6 °F 53% 30.14 in 10.0 mi Calm Calm - N/A   Clear
7:16 AM 71.6 °F - 53.6 °F 53% 30.14 in 10.0 mi Calm Calm - N/A   Clear
7:36 AM 73.4 °F - 53.6 °F 50% 30.14 in 10.0 mi Calm Calm - N/A   Clear
7:56 AM 73.4 °F - 53.6 °F 50% 30.14 in 10.0 mi Calm Calm - N/A   Clear
8:16 AM 73.4 °F - 55.4 °F 53% 30.14 in 10.0 mi Calm Calm - N/A   Clear
8:36 AM 75.2 °F - 53.6 °F 47% 30.14 in 10.0 mi Calm Calm - N/A   Clear
8:56 AM 78.8 °F - 53.6 °F 42% 30.14 in 10.0 mi Calm Calm - N/A   Clear
9:16 AM 78.8 °F - 53.6 °F 42% 30.14 in 10.0 mi Calm Calm - N/A   Clear
9:36 AM 78.8 °F - 53.6 °F 42% 30.14 in 10.0 mi Calm Calm - N/A   Clear
9:56 AM 78.8 °F - 53.6 °F 42% 30.14 in 10.0 mi Calm Calm - N/A   Clear
10:16 AM 78.8 °F - 55.4 °F 44% 30.13 in 10.0 mi Calm Calm - N/A   Clear
10:36 AM 80.6 °F 80.5 °F 55.4 °F 42% 30.13 in 10.0 mi ENE 3.5 mph - N/A   Clear
10:56 AM 80.6 °F 80.5 °F 55.4 °F 42% 30.13 in 10.0 mi Calm Calm - N/A   Clear
11:16 AM 82.4 °F 81.7 °F 55.4 °F 39% 30.12 in 10.0 mi Calm Calm - N/A   Clear
11:36 AM 82.4 °F 81.7 °F 55.4 °F 39% 30.12 in 10.0 mi NE 3.5 mph - N/A   Clear
11:56 AM 82.4 °F 81.4 °F 53.6 °F 37% 30.12 in 10.0 mi Calm Calm - N/A   Clear
12:16 PM 82.4 °F 81.4 °F 53.6 °F 37% 30.12 in 10.0 mi NE 5.8 mph - N/A   Clear
12:36 PM 82.4 °F 81.4 °F 53.6 °F 37% 30.12 in 10.0 mi Calm Calm - N/A   Clear
12:56 PM 82.4 °F 81.4 °F 53.6 °F 37% 30.12 in 10.0 mi NE 4.6 mph - N/A   Clear
1:16 PM 84.2 °F 82.8 °F 53.6 °F 35% 30.12 in 10.0 mi NNE 3.5 mph - N/A   Clear
1:36 PM 82.4 °F 81.4 °F 53.6 °F 37% 30.12 in 10.0 mi NE 4.6 mph - N/A   Clear
1:56 PM 82.4 °F 81.4 °F 53.6 °F 37% 30.12 in 10.0 mi NE 3.5 mph - N/A   Clear
2:16 PM 82.4 °F - 51.8 °F 35% 30.11 in 10.0 mi NE 4.6 mph - N/A   Clear
2:36 PM 82.4 °F - 51.8 °F 35% 30.11 in 10.0 mi NE 5.8 mph - N/A   Clear
2:56 PM 82.4 °F - 51.8 °F 35% 30.11 in 10.0 mi NE 3.5 mph - N/A   Clear
3:16 PM 84.2 °F - 51.8 °F 33% 30.10 in 10.0 mi NNE 3.5 mph - N/A   Clear
3:36 PM 84.2 °F - 50.0 °F 30% 30.10 in 10.0 mi NE 3.5 mph - N/A   Clear
3:56 PM 84.2 °F - 50.0 °F 30% 30.09 in 10.0 mi NE 4.6 mph - N/A   Clear
4:16 PM 84.2 °F - 48.2 °F 29% 30.08 in 10.0 mi NE 3.5 mph - N/A   Clear
4:36 PM 84.2 °F - 48.2 °F 29% 30.08 in 10.0 mi NE 3.5 mph - N/A   Clear
4:56 PM 84.2 °F - 48.2 °F 29% 30.07 in 10.0 mi NE 4.6 mph - N/A   Clear
5:16 PM 84.2 °F - 46.4 °F 27% 30.07 in 10.0 mi NE 3.5 mph - N/A   Clear
5:36 PM 84.2 °F - 46.4 °F 27% 30.07 in 10.0 mi NE 3.5 mph - N/A   Clear
5:56 PM 84.2 °F - 46.4 °F 27% 30.06 in 10.0 mi NE 3.5 mph - N/A   Clear
6:16 PM 82.4 °F - 44.6 °F 26% 30.06 in 10.0 mi NE 3.5 mph - N/A   Clear
6:36 PM 84.2 °F - 44.6 °F 25% 30.06 in 10.0 mi Calm Calm - N/A   Clear
6:56 PM 82.4 °F - 44.6 °F 26% 30.05 in 10.0 mi Calm Calm - N/A   Clear
7:16 PM 82.4 °F - 44.6 °F 26% 30.05 in 10.0 mi Calm Calm - N/A   Clear
7:36 PM 80.6 °F - 42.8 °F 26% 30.04 in 10.0 mi Calm Calm - N/A   Clear
7:56 PM 80.6 °F - 42.8 °F 26% 30.04 in 10.0 mi Calm Calm - N/A   Clear
8:16 PM 80.6 °F - 42.8 °F 26% 30.03 in 10.0 mi Calm Calm - N/A   Clear
8:36 PM 78.8 °F - 41.0 °F 26% 30.03 in 10.0 mi Calm Calm - N/A   Clear
8:56 PM 78.8 °F - 39.2 °F 24% 30.03 in 10.0 mi Calm Calm - N/A   Clear
9:16 PM 78.8 °F - 37.4 °F 23% 30.03 in 10.0 mi Calm Calm - N/A   Clear
9:36 PM 78.8 °F - 39.2 °F 24% 30.03 in 10.0 mi Calm Calm - N/A   Clear
9:56 PM 77.0 °F - 37.4 °F 24% 30.02 in 10.0 mi Calm Calm - N/A   Clear
10:16 PM 77.0 °F - 37.4 °F 24% 30.02 in 10.0 mi Calm Calm - N/A   Clear
10:36 PM 75.2 °F - 37.4 °F 25% 30.02 in 10.0 mi Calm Calm - N/A   Clear
10:56 PM 75.2 °F - 35.6 °F 24% 30.02 in 10.0 mi Calm Calm - N/A   Clear
11:16 PM 75.2 °F - 35.6 °F 24% 30.01 in 10.0 mi NNE 3.5 mph - N/A   Clear
11:36 PM 75.2 °F - 33.8 °F 22% 30.01 in 10.0 mi Calm Calm - N/A   Clear
11:56 PM 75.2 °F - 33.8 °F 22% 30.01 in 10.0 mi NNE 3.5 mph - N/A   Clear